WetterOnline ( http://www.wetteronline.de )

Wetter aktuell Konstanz

Aktuelles Wetter: Konstanz (397m)

6-stündlich | Neueste Meldungen
Ortszeit Temperatur Wetter
Fr, 20.04. 8:00 11.8° C leicht bewölkt
Fr, 20.04. 2:00 14.2° C wolkig
Do, 19.04. 20:00 23.3° C wolkenlos
Do, 19.04. 14:00 21.8° C fast wolkenlos
Do, 19.04. 8:00 10.6° C leicht bewölkt
Do, 19.04. 2:00 13.2° C wolkenlos
Mi, 18.04. 20:00 20.4° C leicht bewölkt
Mi, 18.04. 14:00 23.2° C leicht bewölkt
Ortszeit Temperatur Wetter
Fr, 20.04. 10:00 15.6° C leicht bewölkt
Fr, 20.04. 9:50 15.6° C wolkig
Fr, 20.04. 9:40 15.8° C wolkig
Fr, 20.04. 9:30 15.4° C wolkig
Fr, 20.04. 9:20 15.4° C wolkig
Fr, 20.04. 9:10 14.8° C wolkig
Fr, 20.04. 9:00 14.9° C leicht bewölkt
Fr, 20.04. 8:30 13.9° C wolkig
Fr, 20.04. 8:00 11.8° C leicht bewölkt
Fr, 20.04. 7:30 10.6° C wolkig
Fr, 20.04. 7:00 10.1° C wolkig
Ortszeit Relative Feuchte Sichtweite
Fr, 20.04. 8:00 73% 29 km
Fr, 20.04. 2:00 61% 50 km
Do, 19.04. 20:00 33% 70 km
Do, 19.04. 14:00 35% 35 km
Do, 19.04. 8:00 69% 23 km
Do, 19.04. 2:00 58% 55 km
Mi, 18.04. 20:00 34% 70 km
Mi, 18.04. 14:00 28% 55 km
Ortszeit Relative Feuchte Sichtweite
Fr, 20.04. 10:00 59% 29 km
Fr, 20.04. 9:50 59% -
Fr, 20.04. 9:40 60% -
Fr, 20.04. 9:30 61% 24 km
Fr, 20.04. 9:20 61% -
Fr, 20.04. 9:10 62% -
Fr, 20.04. 9:00 61% 30 km
Fr, 20.04. 8:30 64% 30 km
Fr, 20.04. 8:00 73% 29 km
Fr, 20.04. 7:30 81% 30 km
Fr, 20.04. 7:00 80% 30 km
Ortszeit Niederschlagsmenge Niederschlagsart
Fr, 20.04. 8:00 0.0 l/m2 in 12 Std. -
Fr, 20.04. 2:00 0.0 l/m2 in 6 Std. -
Do, 19.04. 20:00 0.0 l/m2 in 12 Std. -
Do, 19.04. 14:00 0.0 l/m2 in 6 Std. -
Do, 19.04. 8:00 0.0 l/m2 in 12 Std. -
Do, 19.04. 2:00 0.0 l/m2 in 6 Std. -
Mi, 18.04. 20:00 0.0 l/m2 in 12 Std. -
Mi, 18.04. 14:00 0.0 l/m2 in 6 Std. -
Ortszeit Niederschlagsmenge Niederschlagsart
Fr, 20.04. 10:00 0.0 l/m2 in 1 Std. -
Fr, 20.04. 9:50 keine Meldung -
Fr, 20.04. 9:40 keine Meldung -
Fr, 20.04. 9:30 0.0 l/m2 in 1 Std. -
Fr, 20.04. 9:20 keine Meldung -
Fr, 20.04. 9:10 keine Meldung -
Fr, 20.04. 9:00 0.0 l/m2 in 1 Std. -
Fr, 20.04. 8:30 0.0 l/m2 in 1 Std. -
Fr, 20.04. 8:00 0.0 l/m2 in 1 Std. -
Fr, 20.04. 7:30 0.0 l/m2 in 1 Std. -
Fr, 20.04. 7:00 0.0 l/m2 in 1 Std. -
Ortszeit Stärke Spitze Richtung
km/h Bft. km/h Grad Sektor
Fr, 20.04. 8:00 4 1 11 280° W
Fr, 20.04. 2:00 4 1 14 100° O
Do, 19.04. 20:00 2 1 13 80° O
Do, 19.04. 14:00 7 2 14 100° O
Do, 19.04. 8:00 4 1 14 270° W
Do, 19.04. 2:00 4 1 32 40° NO
Mi, 18.04. 20:00 7 2 40 50° NO
Mi, 18.04. 14:00 13 3 22 70° O
Ortszeit Stärke Spitze Richtung
km/h Bft. km/h Grad Sektor
Fr, 20.04. 10:00 7 2 11 80° O
Fr, 20.04. 9:50 7 2 - 80° O
Fr, 20.04. 9:40 7 2 - 90° O
Fr, 20.04. 9:30 4 1 7 170° S
Fr, 20.04. 9:20 4 1 - 170° S
Fr, 20.04. 9:10 4 1 - 170° S
Fr, 20.04. 9:00 4 1 7 180° S
Fr, 20.04. 8:30 4 1 7 10° N
Fr, 20.04. 8:00 4 1 4 280° W
Fr, 20.04. 7:30 2 1 4 30° NO
Fr, 20.04. 7:00 0 0 7 - -
Ortszeit Untergrenze Bedeckung Gattung
total tief tief mittel hoch
Fr, 20.04. 8:00 9000 m 8/8 0/8 - - -
Fr, 20.04. 2:00 9000 m 8/8 0/8 - - -
Do, 19.04. 20:00 - 0/8 0/8 - - -
Do, 19.04. 14:00 3900 m 1/8 1/8 - - -
Do, 19.04. 8:00 12000 m 6/8 0/8 - - -
Do, 19.04. 2:00 - 0/8 0/8 - - -
Mi, 18.04. 20:00 10500 m 8/8 0/8 - - -
Mi, 18.04. 14:00 12000 m 4/8 0/8 - - -
Ortszeit Bedeckungsgrad in Achtel und Wolkenuntergrenze
Fr, 20.04. 10:00 8(9000m) 8(9000m)
Fr, 20.04. 9:50 8(9000m) 8(9000m)
Fr, 20.04. 9:40 8(9000m) 8(9000m)
Fr, 20.04. 9:30 8(9000m) 8(10500m)
Fr, 20.04. 9:20 8(9000m) 8(10500m)
Fr, 20.04. 9:10 8(9000m) 8(10500m)
Fr, 20.04. 9:00 8(9000m) 8(9000m)
Fr, 20.04. 8:30 8(9000m) 8(10500m)
Fr, 20.04. 8:00 8(9000m) 8(9000m)
Fr, 20.04. 7:30 8(9000m) 8(10500m)
Fr, 20.04. 7:00 8(9000m) 8(9000m) 8(10500m)
Ortszeit Luftdruck NN (hPa) Tendenz (hPa in 3 Std.)
Fr, 20.04. 8:00 1025 + 0,3
Fr, 20.04. 2:00 1025 - 0,5
Do, 19.04. 20:00 1024 - 0,6
Do, 19.04. 14:00 1026 - 1,0
Do, 19.04. 8:00 1029 + 0,9
Do, 19.04. 2:00 1028 - 0,1
Mi, 18.04. 20:00 1027 - 0,1
Mi, 18.04. 14:00 1027 - 1,1
Ortszeit Luftdruck NN (hPa) Tendenz (hPa in 3 Std.)
Fr, 20.04. 10:00 1025 + 0,4
Fr, 20.04. 9:50 1025 keine Meldung
Fr, 20.04. 9:40 1025 keine Meldung
Fr, 20.04. 9:30 1025 + 0,5
Fr, 20.04. 9:20 1025 keine Meldung
Fr, 20.04. 9:10 1025 keine Meldung
Fr, 20.04. 9:00 1025 + 0,5
Fr, 20.04. 8:30 1025 + 0,4
Fr, 20.04. 8:00 1025 + 0,3
Fr, 20.04. 7:30 1025 + 0,1
Fr, 20.04. 7:00 1025 - 0,1
Ortszeit Schneehöhe (cm)
Fr, 20.04. 8:00 0
Fr, 20.04. 2:00 0
Do, 19.04. 20:00 0
Do, 19.04. 14:00 0
Do, 19.04. 8:00 0
Do, 19.04. 2:00 0
Mi, 18.04. 20:00 0
Mi, 18.04. 14:00 0
Ortszeit Schneehöhe (cm)
Fr, 20.04. 10:00 0
Fr, 20.04. 9:50 0
Fr, 20.04. 9:40 0
Fr, 20.04. 9:30 0
Fr, 20.04. 9:20 0
Fr, 20.04. 9:10 0
Fr, 20.04. 9:00 0
Fr, 20.04. 8:30 0
Fr, 20.04. 8:00 0
Fr, 20.04. 7:30 0
Fr, 20.04. 7:00 0
Link zu dieser Seite / Seite empfehlen

Das Wetter in ...